False Pass, AK

6:22 AM AKDT on September 28, 2016 (GMT -0800)
False Pass

Weather History for PAKF - September, 2013

Change the Weather History Date:

Sunday, September 1, 2013

  Actual Average (PACD) Record (PACD)
Temperature  
Mean Temperature 58 °F 51 °F  
Max Temperature 55 °F 56 °F 70 °F (1960)
Min Temperature 53 °F 47 °F 35 °F (1964)
Degree Days  
Heating Degree Days 7 14  
Month to date heating degree days 14  
Since 1 July heating degree days 858  
Cooling Degree Days 0    
Month to date cooling degree days  
Year to date cooling degree days  
Growing Degree Days 8 (Base 50)    
Moisture  
Dew Point 55 °F    
Average Humidity 95    
Maximum Humidity 100    
Minimum Humidity 86    
Precipitation  
Precipitation 1.90 in 0.13 in 1.17 in (1971)
Month to date precipitation 0.13  
Year to date precipitation 22.87  
Snow  
Snow 0.00 in 0.00 in 0.00 in (2016)
Month to date snowfall 0.0  
Since 1 July snowfall 0.0  
Since 1 September snowfall 0.0  
Snow Depth -    
Sea Level Pressure  
Sea Level Pressure 29.62 in    
Wind  
Wind Speed 19 mph (SE)    
Max Wind Speed 29 mph    
Max Gust Speed 39 mph    
Visibility 5 miles    
Events Rain    
T = Trace of Precipitation, MM = Missing Value Source: NWS Daily Summary

Daily Weather History Graph

Daily Weather History Graph

Search for Another Location

Airport or City:

Trip Planner

Search our weather history database for the weather conditions in past years. The results will help you decide how hot, cold, wet, or windy it might be!

Date:

Astronomy

Sep. 01, 2013 Rise Set
Actual Time 7:01 AM HDT 8:44 PM HDT
Civil Twilight 6:23 AM HDT 9:22 PM HDT
Nautical Twilight 5:35 AM HDT 10:09 PM HDT
Astronomical Twilight 4:41 AM HDT 11:03 PM HDT
Moon 3:11 AM HDT (9/1) 6:47 PM HDT (9/1)
Length of Visible Light 14h 59m
Length of Day
13h 43m
Waning Crescent, 12% of the Moon is Illuminated
Sep 1
Waning Crescent
Sep 5
New
Sep 12
First Quarter
Sep 19
Full
Sep 26
Last Quarter

Hourly Weather History & Observations

Time (HDT) Temp. Dew Point Humidity Pressure Visibility Wind Dir Wind Speed Gust Speed Precip Events Conditions
12:01 AM 63.0 °F 60.1 °F 90% 30.05 in 10.0 mi SSE 23.0 mph 27.6 mph N/A   Scattered Clouds
12:12 AM 62.6 °F 59.0 °F 88% 29.78 in 10.0 mi SSE 26.5 mph 32.2 mph N/A   Mostly Cloudy
12:31 AM 57.2 °F 55.4 °F 94% 29.78 in 9.0 mi SE 23.0 mph 31.1 mph N/A   Scattered Clouds
1:01 AM 57.0 °F 55.0 °F 93% 30.06 in 6.0 mi SE 20.7 mph 27.6 mph 0.00 in Rain Light Rain
1:13 AM 57.2 °F 55.4 °F 94% 29.79 in 8.0 mi SE 18.4 mph 27.6 mph 0.00 in Rain Light Rain
1:29 AM 55.4 °F 55.4 °F 100% 29.79 in 5.0 mi SE 17.3 mph 21.9 mph 0.00 in Rain Light Rain
1:38 AM 55.4 °F 55.4 °F 100% 29.78 in 6.0 mi SE 20.7 mph 26.5 mph 0.00 in Rain Light Rain
2:01 AM 55.9 °F 55.0 °F 97% 30.06 in 7.0 mi SE 18.4 mph 24.2 mph 0.00 in Rain Light Rain
3:01 AM 55.9 °F 55.0 °F 97% 30.04 in 7.0 mi ESE 23.0 mph 28.8 mph 0.01 in Rain Light Rain
3:24 AM 55.4 °F 55.4 °F 100% 29.75 in 5.0 mi ESE 17.3 mph 25.3 mph 0.00 in Rain Light Rain
3:38 AM 55.4 °F 55.4 °F 100% 29.75 in 10.0 mi ESE 15.0 mph - 0.00 in Rain Light Rain
3:54 AM 55.4 °F 55.4 °F 100% 29.73 in 8.0 mi ESE 15.0 mph - 0.00 in Rain Light Rain
4:01 AM 55.9 °F 55.0 °F 97% 30.01 in 7.0 mi ESE 18.4 mph 24.2 mph 0.00 in Rain Light Rain
4:51 AM 57.2 °F 55.4 °F 94% 29.71 in 10.0 mi ESE 21.9 mph 26.5 mph 0.00 in   Overcast
5:01 AM 57.0 °F 55.9 °F 96% 29.98 in 10.0 mi ESE 20.7 mph 26.5 mph 0.00 in   Overcast
6:01 AM 61.0 °F 60.1 °F 97% 29.94 in 9.0 mi SSE 18.4 mph 29.9 mph 0.00 in Rain Light Rain
7:01 AM 57.9 °F 55.9 °F 93% 29.93 in 5.0 mi SE 21.9 mph 32.2 mph 0.01 in Rain Light Rain
7:10 AM 57.2 °F 57.2 °F 100% 29.65 in 6.0 mi SE 17.3 mph 27.6 mph 0.00 in Rain Light Rain
8:01 AM 59.0 °F 55.9 °F 90% 29.89 in 4.0 mi SSE 19.6 mph 36.8 mph 0.00 in Rain Light Rain
8:11 AM 59.0 °F 55.4 °F 88% 29.62 in 4.0 mi SSE 19.6 mph 31.1 mph 0.00 in Rain Light Rain
8:50 AM 59.0 °F 55.4 °F 88% 29.62 in 5.0 mi SSE 20.7 mph 29.9 mph 0.02 in Rain Light Rain
9:01 AM 59.0 °F 55.0 °F 87% 29.88 in 4.0 mi SSE 24.2 mph 34.5 mph 0.02 in Rain Light Rain
9:18 AM 59.0 °F 55.4 °F 88% 29.61 in 4.0 mi SSE 20.7 mph 28.8 mph 0.01 in Rain Light Rain
9:41 AM 59.0 °F 55.4 °F 88% 29.60 in 2.5 mi South 21.9 mph 34.5 mph 0.02 in Rain Light Rain
10:01 AM 60.1 °F 55.9 °F 86% 29.88 in 2.5 mi SSE 18.4 mph 31.1 mph 0.04 in Rain Rain
10:09 AM 59.0 °F 55.4 °F 88% 29.60 in 4.0 mi SE 17.3 mph 28.8 mph 0.00 in Rain Light Rain
10:49 AM 57.2 °F 55.4 °F 94% 29.58 in 2.5 mi SE 16.1 mph 27.6 mph 0.08 in Rain Rain
10:51 AM 57.2 °F 55.4 °F 94% 29.58 in 3.0 mi SSE 13.8 mph 27.6 mph 0.08 in Rain Rain
11:01 AM 57.2 °F 55.4 °F 94% 29.58 in 2.5 mi SE 17.3 mph 34.5 mph 0.11 in Rain Light Rain
11:08 AM 57.0 °F 55.0 °F 93% 29.86 in 2.5 mi SE 19.6 mph 32.2 mph 0.12 in Rain Light Rain
11:27 AM 57.2 °F 55.4 °F 94% 29.59 in 1.5 mi SSE 25.3 mph 33.4 mph 0.02 in Rain Rain
12:01 PM 55.9 °F 54.0 °F 93% 29.85 in 1.5 mi SE 17.3 mph 33.4 mph 0.10 in Rain Light Rain
12:24 PM 55.4 °F 53.6 °F 94% 29.57 in 2.0 mi SSE 13.8 mph 21.9 mph 0.02 in Rain Light Rain
12:45 PM 55.4 °F 53.6 °F 94% 29.57 in 1.8 mi SE 9.2 mph - 0.06 in Rain Heavy Rain
12:53 PM 55.4 °F 53.6 °F 94% 29.56 in 2.5 mi ESE 11.5 mph - 0.09 in Rain Heavy Rain
1:01 PM 54.0 °F 53.1 °F 97% 29.84 in 2.5 mi ESE 10.4 mph - 0.11 in Rain Light Rain
1:12 PM 53.6 °F 53.6 °F 100% 29.55 in 3.0 mi ESE 10.4 mph - 0.02 in Rain Rain
1:15 PM 53.6 °F 53.6 °F 100% 29.55 in 2.5 mi ESE 8.1 mph - 0.03 in Rain Rain
1:43 PM 53.6 °F 53.6 °F 100% 29.53 in 1.8 mi ESE 10.4 mph - 0.10 in Rain Rain
1:47 PM 53.6 °F 53.6 °F 100% 29.53 in 2.0 mi East 9.2 mph - 0.11 in Rain Rain
2:01 PM 53.1 °F 53.1 °F 100% 29.79 in 2.0 mi East 9.2 mph - 0.16 in Rain Heavy Rain
2:08 PM 53.6 °F 53.6 °F 100% 29.50 in 1.5 mi East 12.7 mph - 0.01 in Rain Light Rain
2:23 PM 53.6 °F 53.6 °F 100% 29.48 in 2.0 mi East 12.7 mph - 0.04 in Rain Rain
2:31 PM 53.6 °F 53.6 °F 100% 29.48 in 2.0 mi East 9.2 mph - 0.07 in Rain Rain
2:40 PM 53.6 °F 53.6 °F 100% 29.47 in 1.5 mi East 9.2 mph - 0.08 in Rain Rain
2:51 PM 53.6 °F 53.6 °F 100% 29.47 in 1.0 mi ESE 9.2 mph - 0.09 in Rain Light Rain
2:58 PM 53.6 °F 53.6 °F 100% 29.46 in 1.2 mi SE 8.1 mph - 0.10 in Rain Light Rain
3:01 PM 54.0 °F 54.0 °F 100% 29.72 in 1.2 mi ESE 9.2 mph - 0.10 in Rain Light Rain
3:13 PM 55.4 °F 53.6 °F 94% 29.45 in 1.2 mi ESE 13.8 mph 20.7 mph 0.00 in Rain Light Rain
3:52 PM 55.4 °F 55.4 °F 100% 29.42 in 2.5 mi SE 12.7 mph 20.7 mph 0.11 in Rain Rain
4:01 PM 55.9 °F 55.0 °F 97% 29.68 in 2.5 mi SSE 15.0 mph 25.3 mph 0.13 in Rain Rain
4:20 PM 57.2 °F 55.4 °F 94% 29.39 in 3.0 mi SSE 17.3 mph 29.9 mph 0.06 in Rain Rain
5:01 PM 57.0 °F 55.0 °F 93% 29.64 in 3.0 mi SSE 19.6 mph 33.4 mph 0.23 in Rain Rain
5:14 PM 57.2 °F 55.4 °F 94% 29.36 in 2.0 mi SSE 24.2 mph 34.5 mph 0.04 in Rain Rain
5:33 PM 57.2 °F 55.4 °F 94% 29.36 in 3.0 mi SSE 28.8 mph 38.0 mph 0.12 in Rain Rain
6:01 PM 57.2 °F 55.4 °F 94% 29.35 in 4.0 mi SSE 26.5 mph 39.1 mph 0.24 in Rain Rain
6:46 PM 57.0 °F 55.0 °F 93% 29.60 in 7.0 mi SE 20.7 mph 31.1 mph 0.37 in Rain Rain
7:01 PM 57.0 °F 55.9 °F 96% 29.59 in 8.0 mi SSE 17.3 mph 26.5 mph 0.02 in Rain Light Rain
7:57 PM 57.2 °F 55.4 °F 94% 29.30 in 4.0 mi SSE 18.4 mph 27.6 mph 0.27 in Rain Rain
8:01 PM 57.0 °F 55.0 °F 93% 29.57 in 3.0 mi SSE 21.9 mph 31.1 mph 0.28 in Rain Rain
8:08 PM 57.2 °F 55.4 °F 94% 29.29 in 2.5 mi SSE 17.3 mph 31.1 mph 0.02 in Rain Rain
8:18 PM 57.2 °F 55.4 °F 94% 29.28 in 3.0 mi SSE 16.1 mph 26.5 mph 0.03 in Rain Light Rain
9:01 PM 55.4 °F 53.6 °F 94% 29.27 in 6.0 mi SE 20.7 mph 27.6 mph 0.14 in Rain Light Rain
9:21 PM 55.4 °F 53.6 °F 94% 29.27 in 7.0 mi SE 21.9 mph 29.9 mph 0.18 in Rain Light Rain
10:01 PM 55.9 °F 54.0 °F 93% 29.52 in 9.0 mi SE 17.3 mph 25.3 mph 0.20 in Rain Light Rain
10:40 PM 55.4 °F 53.6 °F 94% 29.25 in 10.0 mi SE 18.4 mph 25.3 mph 0.00 in Rain Light Rain
11:01 PM 57.0 °F 53.1 °F 87% 29.52 in 10.0 mi SSE 10.4 mph 17.3 mph 0.00 in   Overcast
11:09 PM 57.2 °F 53.6 °F 88% 29.24 in 10.0 mi SE 8.1 mph - N/A   Overcast
11:25 PM 55.4 °F 53.6 °F 94% 29.25 in 10.0 mi Variable 5.8 mph 20.7 mph N/A   Mostly Cloudy